AD4CG Weather Reports


time (UTC)temp
F
wind
direction
speed
knots
gust
knots
rain 1hr
in
rain 24hr
in
rain mn
in
humidity
%
barometer
mb
20260508085522 52 14 0.0 2.6 0.00 0.19 0.71 100 1015.2
20260508084946 52 14 0.0 2.6 0.00 0.20 0.71 100 1015.2
20260508084440 52 14 0.0 2.6 0.00 0.20 0.71 100 1014.9
20260508083911 53 14 0.0 2.6 0.00 0.22 0.71 100 1015.2
20260508083352 53 14 0.0 2.6 0.00 0.23 0.71 100 1015.2
20260508082831 53 14 0.0 2.6 0.00 0.24 0.71 100 1014.9
20260508082300 53 14 0.0 2.6 0.00 0.25 0.71 100 1015.2
20260508081752 53 14 0.0 2.6 0.00 0.26 0.71 100 1014.9
20260508081228 53 14 0.0 2.6 0.00 0.26 0.71 100 1014.6
20260508080703 53 14 0.0 2.6 0.00 0.27 0.71 100 1014.9
20260508080146 53 14 0.0 2.6 0.00 0.27 0.71 100 1015.2
20260508075642 53 14 0.0 2.6 0.00 0.28 0.71 100 1014.6
20260508075106 53 14 0.0 2.6 0.00 0.28 0.71 100 1014.6
20260508074548 53 14 0.0 2.6 0.00 0.28 0.71 100 1014.2
20260508074015 53 14 0.0 2.6 0.00 0.29 0.71 100 1014.6
20260508073508 53 14 0.0 2.6 0.00 0.30 0.71 100 1014.6
20260508072945 53 14 0.0 2.6 0.00 0.30 0.71 100 1014.6
20260508072424 52 14 0.0 2.6 0.00 0.30 0.71 100 1014.2
20260508071904 52 14 0.0 2.6 0.00 0.30 0.71 100 1014.2
20260508071348 52 14 0.0 2.6 0.00 0.30 0.71 100 1014.6
20260508070828 52 14 0.0 2.6 0.00 0.30 0.71 100 1014.6
20260508070304 52 14 0.0 2.6 0.00 0.30 0.71 100 1014.2
20260508065731 53 14 0.0 2.6 0.00 0.30 0.71 100 1014.2
20260508065226 52 14 0.0 2.6 0.00 0.30 0.71 100 1014.6
20260508064702 53 14 0.0 2.6 0.00 0.30 0.71 100 1014.2
20260508064147 53 14 0.0 2.6 0.00 0.30 0.71 100 1014.2
20260508063626 53 14 0.0 2.6 0.00 0.30 0.71 100 1014.6
20260508063107 53 14 0.0 2.6 0.00 0.30 0.71 100 1014.2
20260508062534 53 14 0.0 2.6 0.00 0.30 0.71 100 1014.6
20260508062008 53 14 0.0 2.6 0.00 0.30 0.71 100 1014.2
20260508061459 53 14 0.0 2.6 0.00 0.30 0.71 100 1014.2
20260508060951 53 14 0.0 2.6 0.00 0.30 0.71 100 1014.2
20260508060416 53 14 0.0 2.6 0.00 0.30 0.71 100 1014.6
20260508055902 53 14 0.0 2.6 0.00 0.30 0.71 100 1014.6
20260508055336 53 14 1.7 2.6 0.00 0.30 0.71 100 1014.2
20260508054820 53 14 0.0 2.6 0.00 0.30 0.71 100 1014.2
20260508054255 53 14 0.0 2.6 0.00 0.30 0.71 100 1014.2
20260508053736 53 14 0.0 2.6 0.00 0.30 0.71 100 1014.2
20260508053219 53 14 0.0 2.6 0.00 0.30 0.71 100 1013.9
20260508052651 53 14 0.0 2.6 0.00 0.30 0.71 100 1014.6
20260508052132 53 14 0.0 2.6 0.00 0.30 0.71 100 1014.6
20260508051606 54 14 0.0 2.6 0.00 0.30 0.71 100 1014.2
20260508051051 54 14 0.0 2.6 0.00 0.30 0.71 100 1013.9
20260508050528 54 14 0.0 2.6 0.00 0.30 0.71 100 1014.2
20260508045954 54 14 0.0 2.6 0.00 0.30 0.71 100 1013.9
20260508045444 54 14 0.0 2.6 0.00 0.31 0.71 100 1013.9
20260508044910 54 14 0.0 2.6 0.00 0.31 0.71 100 1014.2
20260508044342 54 14 0.0 2.6 0.00 0.32 0.71 100 1013.9
20260508043836 54 14 0.0 2.6 0.00 0.33 0.71 100 1013.9
20260508043316 54 14 0.0 2.6 0.00 0.33 0.71 100 1014.2
20260508042756 54 14 0.0 2.6 0.00 0.33 0.71 100 1013.9
20260508042233 54 14 0.0 2.6 0.00 0.33 0.71 100 1013.9
20260508041655 54 14 0.0 2.6 0.00 0.33 0.71 100 1014.2
20260508041132 54 14 0.9 2.6 0.00 0.33 0.71 100 1014.2
20260508040624 54 14 0.0 1.7 0.00 0.33 0.71 100 1013.9
20260508040114 54 14 0.9 0.9 0.00 0.33 0.71 100 1014.2
20260508035541 54 14 0.0 12.2 0.00 0.33 0.71 100 1013.9
20260508035016 54 14 2.6 12.2 0.00 0.34 0.71 100 1014.2
20260508034442 54 14 0.0 12.2 0.00 0.34 0.71 100 1013.9
20260508033915 54 14 0.0 12.2 0.00 0.35 0.71 100 1013.5
20260508033406 54 14 0.0 12.2 0.00 0.35 0.71 100 1013.2
20260508032845 54 14 0.0 12.2 0.00 0.35 0.71 100 1013.5
20260508032324 54 14 0.9 12.2 0.00 0.35 0.71 100 1013.2
20260508031814 54 14 0.0 12.2 0.00 0.35 0.71 100 1013.2
20260508031233 54 14 0.0 12.2 0.00 0.35 0.71 100 1012.9
20260508030705 54 14 0.0 12.2 0.00 0.35 0.71 100 1013.2
20260508030145 54 14 0.0 12.2 0.00 0.35 0.71 100 1013.2
20260508025638 54 14 0.0 12.2 0.00 0.35 0.71 100 1012.5
20260508025052 54 11 0.0 12.2 0.00 0.35 0.71 100 1012.5
20260508024527 54 12 0.9 12.2 0.00 0.35 0.71 100 1012.9
20260508024018 54 11 0.0 12.2 0.00 0.35 0.71 100 1013.2
20260508023449 54 12 0.9 12.2 0.00 0.35 0.71 100 1012.9
20260508022912 54 11 0.9 12.2 0.00 0.35 0.71 100 1012.9
20260508022349 54 11 0.9 12.2 0.00 0.35 0.71 100 1012.9
20260508021844 54 12 0.9 12.2 0.00 0.35 0.71 100 1012.9
20260508021319 54 11 0.0 12.2 0.00 0.35 0.71 100 1013.2
20260508020813 54 11 0.0 12.2 0.00 0.35 0.71 100 1013.2
20260508020244 54 11 0.9 12.2 0.00 0.35 0.71 100 1012.9
20260508015720 54 39 3.5 12.2 0.00 0.35 0.71 100 1012.5
20260508015205 54 39 0.0 12.2 0.00 0.35 0.71 100 1012.5
20260508014653 54 39 0.0 12.2 0.00 0.35 0.71 100 1012.5
20260508014119 54 39 0.9 12.2 0.00 0.35 0.71 100 1012.5
20260508013615 54 39 0.0 12.2 0.00 0.35 0.71 100 1012.5
20260508013038 54 39 0.0 12.2 0.00 0.35 0.71 100 1012.2
20260508012525 54 39 0.0 12.2 0.00 0.35 0.71 100 1012.5
20260508011958 54 39 1.7 12.2 0.00 0.35 0.71 100 1012.2
20260508011456 54 39 0.0 12.2 0.00 0.35 0.71 100 1011.9
20260508010925 54 7 0.9 12.2 0.00 0.35 0.71 100 1011.9
20260508010413 54 8 0.0 12.2 0.00 0.35 0.71 100 1000.3
20260508005851 54 280 1.7 12.2 0.00 0.35 0.71 100 1011.9
20260507233152 55 105 5.2 12.2 0.00 0.34 0.71 100 1010.5
20260507232647 55 35 4.3 12.2 0.00 0.34 0.71 100 1010.2
20260507232140 55 57 4.3 12.2 0.00 0.34 0.71 100 1010.2
20260507231633 55 33 1.7 12.2 0.00 0.34 0.71 100 1010.5
20260507231132 55 12 0.9 12.2 0.00 0.34 0.71 100 1010.2
20260507230621 55 56 2.6 12.2 0.00 0.34 0.71 100 1010.2
20260507230057 55 111 3.5 12.2 0.00 0.34 0.71 100 1010.2
20260507225543 56 67 1.7 12.2 0.00 0.34 0.71 100 1010.2
20260507225008 56 86 2.6 12.2 0.00 0.34 0.71 100 1009.5
20260507224459 56 57 4.3 12.2 0.00 0.34 0.71 100 1010.2
20260507223932 56 346 2.6 12.2 0.00 0.34 0.71 100 1010.2
20260507223420 56 97 8.7 12.2 0.00 0.34 0.71 100 1009.8
20260507222912 56 287 4.3 12.2 0.00 0.34 0.71 100 1010.2
20260507222357 56 29 3.5 12.2 0.00 0.34 0.71 100 1009.5
20260507221852 57 48 6.1 12.2 0.00 0.34 0.71 100 1009.5
20260507221327 57 46 2.6 12.2 0.00 0.34 0.71 100 1009.8
20260507220820 57 34 3.5 12.2 0.00 0.34 0.71 100 1010.2
20260507220300 58 7 2.6 12.2 0.00 0.34 0.71 100 1009.5
20260507215750 58 73 3.5 12.2 0.00 0.34 0.71 100 1009.8
20260507215248 58 328 1.7 12.2 0.00 0.34 0.71 100 1009.8
20260507214208 59 17 0.9 12.2 0.00 0.34 0.71 100 1009.1
20260507213649 59 26 0.9 12.2 0.00 0.34 0.71 100 1009.5
20260507213118 60 36 1.7 12.2 0.00 0.34 0.71 100 1009.1
20260507212609 60 18 3.5 12.2 0.00 0.34 0.71 100 1008.8
20260507212102 60 39 2.6 12.2 0.00 0.34 0.71 100 1008.8
20260507211533 60 32 6.1 12.2 0.00 0.34 0.71 100 1008.8
20260507210954 61 18 3.5 12.2 0.00 0.34 0.71 100 1008.8
20260507210440 61 73 3.5 12.2 0.00 0.34 0.71 100 1008.8
20260507205916 62 61 3.5 12.2 0.00 0.34 0.71 100 1008.5
20260507205340 61 15 3.5 12.2 0.00 0.34 0.71 100 1008.5
20260507204836 62 37 1.7 12.2 0.00 0.34 0.71 100 1008.5
20260507204300 62 26 2.6 12.2 0.00 0.34 0.71 100 1008.1
20260507203752 62 55 3.5 12.2 0.00 0.34 0.71 100 1008.1
20260507203224 62 23 6.1 12.2 0.00 0.34 0.71 100 1008.1
20260507202652 62 41 2.6 12.2 0.00 0.34 0.71 100 1008.1
20260507202139 62 334 9.6 12.2 0.00 0.34 0.71 100 1008.1
20260507201620 63 36 2.6 12.2 0.00 0.34 0.71 100 1008.1
20260507201045 63 296 7.0 12.2 0.00 0.34 0.71 100 1008.1
20260507200528 65 43 4.3 12.2 0.00 0.34 0.71 100 1008.1
20260507200004 69 289 6.1 12.2 0.00 0.34 0.71 100 1008.1
20260507195435 72 21 3.5 11.3 0.00 0.34 0.71 100 1007.8
20260507194921 73 320 2.6 11.3 0.00 0.34 0.71 100 1007.5
20260507194408 72 229 3.5 11.3 0.00 0.34 0.71 100 1007.5
20260507193848 73 292 3.5 11.3 0.00 0.34 0.71 100 1007.5
20260507193340 73 352 5.2 11.3 0.00 0.34 0.71 100 1007.8
20260507192803 73 282 4.3 11.3 0.00 0.34 0.71 100 1007.8
20260507192237 73 235 4.3 11.3 0.00 0.34 0.71 100 1007.8
20260507191708 72 211 0.0 11.3 0.00 0.34 0.71 100 1007.8
20260507191145 71 350 5.2 11.3 0.00 0.34 0.71 100 1007.5
20260507190630 71 227 3.5 11.3 0.00 0.34 0.71 100 1007.5
20260507190124 71 245 0.9 11.3 0.00 0.34 0.71 100 1007.5
20260507185607 70 243 0.9 11.3 0.00 0.34 0.71 100 1007.5
20260507185053 70 250 0.9 11.3 0.00 0.34 0.71 100 1008.1
20260507184537 70 214 3.5 11.3 0.00 0.34 0.71 100 1008.1
20260507184016 70 239 0.0 11.3 0.00 0.34 0.71 100 1008.1
20260507183456 70 236 0.9 11.3 0.00 0.34 0.71 100 1008.8
20260507182941 69 1 0.9 11.3 0.00 0.34 0.71 100 1008.8
20260507182429 69 206 4.3 11.3 0.00 0.34 0.71 100 1008.5
20260507181909 69 342 0.0 11.3 0.00 0.34 0.71 100 1008.8
20260507181358 69 337 3.5 11.3 0.00 0.34 0.71 100 1008.5
20260507180848 69 212 0.0 11.3 0.00 0.34 0.71 100 1008.1
20260507180327 69 241 4.3 11.3 0.00 0.34 0.71 100 1008.5
20260507175815 69 246 0.9 11.3 0.00 0.34 0.71 100 1008.1
20260507175249 69 221 2.6 11.3 0.00 0.34 0.71 100 1008.1
20260507174728 69 235 0.9 11.3 0.00 0.34 0.71 100 1008.5
20260507174219 69 241 0.0 11.3 0.01 0.34 0.71 100 1007.8
20260507173650 69 228 1.7 11.3 0.02 0.34 0.71 100 1008.5
20260507173132 68 213 3.5 11.3 0.03 0.34 0.71 100 1008.8
20260507172619 68 227 0.9 11.3 0.04 0.34 0.71 100 1008.5
20260507172050 68 253 4.3 11.3 0.04 0.34 0.71 100 1008.8
20260507171534 68 238 4.3 11.3 0.05 0.34 0.71 100 1008.8
20260507171011 68 236 3.5 11.3 0.05 0.34 0.71 100 1008.8
20260507170501 68 231 0.0 11.3 0.05 0.34 0.71 100 1009.1
20260507165946 68 235 2.6 11.3 0.05 0.34 0.71 100 1009.1
20260507165429 68 236 0.0 11.3 0.05 0.34 0.70 100 1008.8
20260507164913 67 238 1.7 11.3 0.06 0.34 0.70 100 1009.1
20260507164355 68 229 1.7 11.3 0.06 0.33 0.70 100 1009.5
20260507163837 68 262 0.9 11.3 0.06 0.33 0.69 100 1010.2
20260507163311 68 293 5.2 11.3 0.05 0.31 0.68 100 1009.8
20260507162800 68 236 3.5 11.3 0.04 0.31 0.67 100 1009.8
20260507162239 68 215 1.7 11.3 0.04 0.30 0.67 100 1009.8
20260507161723 68 228 4.3 11.3 0.04 0.30 0.66 100 1009.8
20260507161150 68 246 1.7 11.3 0.04 0.30 0.66 100 1009.5
20260507160627 68 243 2.6 11.3 0.04 0.30 0.66 100 1009.5
20260507160108 68 247 2.6 11.3 0.04 0.29 0.66 100 1009.8
20260507155606 68 241 5.2 11.3 0.04 0.29 0.65 100 1009.8
20260507155104 68 243 0.0 11.3 0.04 0.28 0.65 100 1009.8
20260507154556 68 284 0.9 11.3 0.04 0.28 0.65 100 1009.8
20260507154041 68 197 0.9 11.3 0.04 0.27 0.63 100 1009.5
20260507153521 68 224 2.6 11.3 0.04 0.27 0.63 100 1009.5
20260507153002 68 243 1.7 11.3 0.04 0.26 0.63 100 1009.5
20260507152436 68 215 1.7 11.3 0.05 0.26 0.63 100 1010.2
20260507151923 68 226 0.0 11.3 0.05 0.26 0.63 100 1009.8
20260507151410 68 226 1.7 11.3 0.05 0.26 0.63 100 1009.8
20260507150855 68 234 0.0 11.3 0.04 0.26 0.62 100 1010.2
20260507150343 68 222 3.5 11.3 0.04 0.26 0.62 100 1010.5
20260507145834 68 222 1.7 11.3 0.04 0.25 0.62 100 1010.5
20260507145306 68 217 2.6 11.3 0.04 0.25 0.61 100 1010.5
20260507144745 68 219 1.7 11.3 0.03 0.24 0.61 100 1010.2
20260507144239 68 248 5.2 11.3 0.02 0.23 0.60 100 1010.5
20260507143724 68 245 2.6 11.3 0.02 0.23 0.59 100 1010.2
20260507143204 68 213 3.5 11.3 0.01 0.22 0.59 100 1010.5
20260507142656 69 255 0.0 11.3 0.01 0.22 0.59 100 1010.5
20260507142145 69 275 0.0 11.3 0.00 0.21 0.58 100 1010.5
20260507141631 69 272 0.9 11.3 0.00 0.21 0.58 100 1010.5
20260507141116 69 284 3.5 11.3 0.00 0.21 0.58 100 1010.5
20260507140604 69 294 1.7 11.3 0.00 0.21 0.58 100 1010.5
20260507140034 69 211 0.0 11.3 0.00 0.21 0.58 100 1010.5
20260507135514 68 271 0.0 11.3 0.00 0.21 0.58 100 1010.2
20260507134959 68 228 2.6 11.3 0.00 0.21 0.58 100 1010.5
20260507134431 68 248 0.0 11.3 0.00 0.21 0.58 100 1009.8
20260507133919 68 320 4.3 11.3 0.00 0.21 0.58 100 1010.2
20260507133405 68 212 0.0 11.3 0.00 0.21 0.58 100 1010.2
20260507132841 68 214 3.5 11.3 0.00 0.21 0.58 100 1010.2
20260507132322 68 229 4.3 11.3 0.00 0.21 0.58 100 1009.8
20260507131814 68 231 0.0 11.3 0.00 0.21 0.58 100 1010.2
20260507131312 68 268 3.5 11.3 0.00 0.21 0.58 100 1009.8
20260507130754 68 139 0.9 11.3 0.00 0.21 0.58 100 1009.8
20260507130231 68 227 5.2 11.3 0.00 0.21 0.58 100 1010.2
20260507125712 68 269 1.7 11.3 0.00 0.21 0.58 100 1009.8
20260507125154 68 191 0.9 11.3 0.00 0.21 0.58 100 1010.2
20260507124624 68 223 3.5 11.3 0.00 0.21 0.58 100 1010.2
20260507124109 67 202 1.7 11.3 0.00 0.21 0.58 100 1010.2
20260507123549 67 249 3.5 11.3 0.00 0.21 0.58 100 1010.2
20260507123017 67 243 3.5 11.3 0.00 0.21 0.58 100 1010.8
20260507122500 67 240 2.6 11.3 0.00 0.21 0.58 100 1010.2
20260507121948 67 216 4.3 11.3 0.00 0.21 0.58 100 1010.5
20260507121443 67 238 2.6 11.3 0.00 0.21 0.58 100 1010.8
20260507120934 67 285 5.2 11.3 0.00 0.21 0.58 100 1010.8
20260507120414 67 195 3.5 11.3 0.00 0.21 0.58 100 1010.8
20260507115849 67 221 7.8 11.3 0.01 0.21 0.58 100 1011.2
20260507115334 67 230 0.9 11.3 0.01 0.21 0.58 100 1011.2
20260507114826 67 259 5.2 11.3 0.01 0.21 0.58 100 1011.2
20260507114308 67 230 6.1 11.3 0.01 0.21 0.58 100 1011.2
20260507113759 67 232 5.2 11.3 0.01 0.21 0.58 100 1010.8
20260507113238 67 225 4.3 11.3 0.01 0.21 0.58 100 1011.2
20260507112734 67 210 7.0 11.3 0.01 0.21 0.57 100 1010.8
20260507112229 67 223 3.5 11.3 0.01 0.21 0.57 100 1010.8
20260507111711 67 243 5.2 11.3 0.01 0.21 0.57 100 1011.2
20260507111158 67 231 5.2 11.3 0.02 0.21 0.57 100 1010.8
20260507110636 67 228 7.8 11.3 0.02 0.21 0.57 100 1011.2
20260507110121 67 265 3.5 8.7 0.02 0.21 0.57 100 1011.2
20260507105557 67 218 4.3 8.7 0.02 0.20 0.57 100 1010.8
20260507105044 67 239 1.7 8.7 0.02 0.20 0.57 100 1010.8
20260507104530 67 233 2.6 8.7 0.02 0.20 0.57 100 1010.8
20260507104015 67 246 2.6 8.7 0.02 0.20 0.57 100 1010.8
20260507103450 66 137 7.0 8.7 0.02 0.20 0.57 100 1010.8
20260507102928 67 229 6.1 7.8 0.02 0.20 0.57 100 1010.5
20260507102403 66 233 4.3 7.8 0.02 0.20 0.56 100 1010.5
20260507101846 66 187 1.7 7.8 0.02 0.20 0.56 100 1010.8
20260507101333 66 189 0.9 7.8 0.02 0.19 0.56 100 1010.8
20260507100807 66 229 4.3 7.8 0.02 0.19 0.56 100 1010.2
20260507100300 66 231 3.5 7.0 0.02 0.19 0.56 100 1010.2
20260507095741 66 59 2.6 7.0 0.02 0.19 0.55 100 1009.8
20260507095227 66 234 3.5 7.0 0.03 0.18 0.55 100 1010.2
20260507094712 66 202 0.0 7.0 0.04 0.18 0.55 100 1010.5
20260507094207 66 231 1.7 7.0 0.05 0.18 0.55 100 1010.8
20260507093629 66 233 2.6 7.0 0.06 0.18 0.55 100 1010.8
20260507093119 66 237 0.9 7.0 0.07 0.18 0.55 100 1010.8
20260507092607 66 233 0.9 7.0 0.07 0.18 0.54 100 1010.8
20260507092040 66 241 0.0 7.0 0.08 0.18 0.54 100 1010.8
20260507091514 66 241 1.7 7.0 0.09 0.17 0.54 100 1010.8
20260507091009 66 243 0.0 7.0 0.09 0.17 0.54 100 1010.8
20260507090456 66 226 2.6 7.0 0.09 0.17 0.53 100 1010.8
20260507085941 66 270 2.6 7.0 0.09 0.16 0.53 100 1010.8